EVA062 LOWW-VTBS

Flight info

Callsign EVA062
Flight time N/A
Altitude 37000
Route ADAMA DCT VEDER DCT ALAMU DCT BUDOP DCT IRLOX DCT OPT DCT LUGEB DCT UDROS DCT BAMUP DCT ROLIN N644 ODILI DCT BARAD M747 SULEL N449 DUKAN B449 KEMOR/N0488F390 B449 RANAH L750 MERUN G452 LKN R460 BBN P646 JJS Z12 DOPID/N0488F410 P646 PTN N895 BETNO G463 TARED DCT WILLA WILLA1C
Aircraft B789/H-SDE1E2E3FGHIJ2J3J4J5M1RWXY/LB1D1

Departure

Time 2026-04-26 10:22
Airport Vienna International Airport (LOWW)

Arrival

Time N/A
Airport Suvarnabhumi Airport (VTBS)
Time Latitude Longitude Altitude Speed Heading
2026-04-26 09:58 48.11761 16.56117 628 ft 0 kts 27°
2026-04-26 09:58 48.11762 16.56119 628 ft 0 kts 26°
2026-04-26 09:59 48.11761 16.56119 628 ft 0 kts 26°
2026-04-26 10:00 48.11762 16.56119 616 ft 0 kts 26°
2026-04-26 10:00 48.11761 16.56119 616 ft 0 kts 26°
2026-04-26 10:03 48.11761 16.56118 615 ft 0 kts 26°
2026-04-26 10:04 48.11760 16.56118 615 ft 0 kts 26°
2026-04-26 10:07 48.11759 16.56118 630 ft 0 kts 26°
2026-04-26 10:09 48.11759 16.56117 615 ft 0 kts 26°
2026-04-26 10:11 48.11758 16.56117 615 ft 0 kts 26°
2026-04-26 10:14 48.11749 16.56110 615 ft 4 kts 29°
2026-04-26 10:14 48.11727 16.56087 631 ft 4 kts 46°
2026-04-26 10:14 48.11712 16.56056 631 ft 4 kts 72°
2026-04-26 10:15 48.11710 16.56020 631 ft 3 kts 114°
2026-04-26 10:15 48.11711 16.56016 631 ft 0 kts 116°
2026-04-26 10:15 48.11711 16.56015 631 ft 0 kts 116°
2026-04-26 10:17 48.11710 16.56018 631 ft 0 kts 116°
2026-04-26 10:17 48.11702 16.56043 631 ft 7 kts 115°
2026-04-26 10:18 48.11668 16.56150 627 ft 14 kts 116°
2026-04-26 10:18 48.11623 16.56285 628 ft 15 kts 116°
2026-04-26 10:18 48.11576 16.56428 623 ft 16 kts 116°
2026-04-26 10:18 48.11525 16.56585 625 ft 17 kts 116°
2026-04-26 10:19 48.11471 16.56752 629 ft 19 kts 116°
2026-04-26 10:19 48.11413 16.56933 623 ft 20 kts 116°
2026-04-26 10:19 48.11350 16.57123 628 ft 21 kts 116°
2026-04-26 10:19 48.11284 16.57323 623 ft 22 kts 116°
2026-04-26 10:20 48.11217 16.57533 622 ft 22 kts 115°
2026-04-26 10:20 48.11132 16.57582 630 ft 11 kts 213°
2026-04-26 10:20 48.11065 16.57519 626 ft 11 kts 210°
2026-04-26 10:20 48.10998 16.57468 625 ft 11 kts 207°
2026-04-26 10:21 48.10960 16.57407 626 ft 6 kts 269°
2026-04-26 10:21 48.10981 16.57332 626 ft 11 kts 297°
2026-04-26 10:21 48.11054 16.57108 622 ft 45 kts 296°
2026-04-26 10:21 48.11272 16.56435 628 ft 98 kts 296°
2026-04-26 10:22 48.11643 16.55298 627 ft 144 kts 297°
2026-04-26 10:22 48.12111 16.53797 793 ft 160 kts 292°
2026-04-26 10:22 48.12475 16.52245 1356 ft 166 kts 280°
2026-04-26 10:22 48.12174 16.50426 1754 ft 195 kts 237°
2026-04-26 10:23 48.11111 16.49152 2469 ft 204 kts 204°
2026-04-26 10:23 48.09697 16.48340 2809 ft 229 kts 194°
2026-04-26 10:23 48.08116 16.47705 3305 ft 243 kts 197°
2026-04-26 10:23 48.06336 16.47432 3659 ft 272 kts 180°
2026-04-26 10:24 48.04388 16.47726 4283 ft 283 kts 173°
2026-04-26 10:24 48.02433 16.48202 5108 ft 288 kts 173°
2026-04-26 10:24 48.00420 16.48613 5793 ft 296 kts 177°
2026-04-26 10:24 47.98410 16.49042 6711 ft 302 kts 168°
2026-04-26 10:25 47.96550 16.50655 7498 ft 312 kts 137°
2026-04-26 10:25 47.95330 16.53305 8269 ft 313 kts 107°
2026-04-26 10:25 47.94995 16.56441 9076 ft 304 kts 78°
2026-04-26 10:25 47.95479 16.59391 9907 ft 296 kts 61°
2026-04-26 10:26 47.96163 16.62327 10561 ft 307 kts 63°
2026-04-26 10:26 47.96897 16.65467 10764 ft 334 kts 64°
2026-04-26 10:26 47.97685 16.68878 10926 ft 361 kts 64°
2026-04-26 10:26 47.98522 16.72544 11179 ft 382 kts 65°
2026-04-26 10:27 47.99363 16.76299 12063 ft 383 kts 67°
2026-04-26 10:27 47.99783 16.80306 12759 ft 397 kts 82°
2026-04-26 10:27 48.00008 16.84442 13507 ft 400 kts 79°
2026-04-26 10:27 48.00287 16.88593 14231 ft 404 kts 79°
2026-04-26 10:28 48.00533 16.92802 14903 ft 409 kts 81°
2026-04-26 10:28 48.00754 16.97056 15583 ft 413 kts 81°
2026-04-26 10:28 48.00988 17.01349 16243 ft 417 kts 81°
2026-04-26 10:28 48.00967 17.05715 16858 ft 426 kts 94°
2026-04-26 10:29 48.00597 17.10123 17462 ft 430 kts 92°
2026-04-26 10:29 48.00296 17.14581 18111 ft 433 kts 92°
2026-04-26 10:29 47.99969 17.19065 18717 ft 437 kts 93°
2026-04-26 10:29 47.99601 17.23593 19256 ft 441 kts 93°
2026-04-26 10:30 47.99235 17.28168 19771 ft 446 kts 92°
2026-04-26 10:30 47.98872 17.32784 20261 ft 450 kts 94°
2026-04-26 10:30 47.98074 17.37350 20748 ft 458 kts 105°
2026-04-26 10:30 47.97091 17.41892 21228 ft 461 kts 104°
2026-04-26 10:31 47.96096 17.46448 21810 ft 461 kts 105°
2026-04-26 10:31 47.95087 17.51006 22296 ft 464 kts 105°
2026-04-26 10:31 47.94077 17.55592 22753 ft 467 kts 105°
2026-04-26 10:31 47.93065 17.60205 23223 ft 470 kts 105°
2026-04-26 10:32 47.92042 17.64847 23665 ft 473 kts 105°
2026-04-26 10:32 47.91023 17.69441 24036 ft 475 kts 105°
2026-04-26 10:32 47.89966 17.74202 24401 ft 478 kts 105°
2026-04-26 10:32 47.88920 17.78910 24757 ft 480 kts 106°
2026-04-26 10:33 47.87868 17.83638 25095 ft 482 kts 106°
2026-04-26 10:33 47.86806 17.88388 25430 ft 484 kts 106°
2026-04-26 10:33 47.85753 17.93092 25760 ft 486 kts 106°
2026-04-26 10:33 47.84666 17.97866 26085 ft 489 kts 109°
2026-04-26 10:34 47.83275 18.02510 26353 ft 493 kts 113°
2026-04-26 10:34 47.81810 18.07148 26571 ft 497 kts 113°
2026-04-26 10:34 47.80337 18.11810 26899 ft 499 kts 113°
2026-04-26 10:34 47.78877 18.16501 27198 ft 501 kts 113°